Location: Unspecified
(22.6800°N, 112.2000°E)
Time: 11:58:34
(UTC+08:00)

Tiros 1 despin weight - Pass Details

Date: 04 August 2021
Orbit: 593 x 641 km, 48.2° (Epoch: 26 September)

Event Time Altitude Azimuth Distance (km) Brightness Sun altitude
Rises 20:04:01 0° 313° (NW) 2,926 ? -12.3°
Reaches altitude 10° 20:06:22 10° 312° (NW) 2,011 ? -12.8°
Maximum altitude 20:10:59 74° 228° (SW) 652 ? -13.7°
Enters shadow 20:14:11 19° 145° (SE) 1,470 ? -14.4°
